Regional Weather Roundup
Issued by NWS Charleston, SC

Current Version | Previous Version | Graphics & Text | Print | Product List | Glossary On
Versions: 1 2 3 4 5 6 7 8 9 10 11 12 13 14 15 16 17 18 19 20 21 22 23 24 25 26 27 28 29 30 31 32 33 34 35 36 37 38 39 40 41 42 43 44 45 46 47 48 49 50
000 ASUS42 KCHS 052312 RWRCHS REGIONAL WEATHER ROUNDUP NATIONAL WEATHER SERVICE CHARLESTON SC 600 PM EST FRI FEB 05 2016 NOTE: "FAIR" INDICATES FEW OR NO CLOUDS BELOW 12,000 FEET WITH NO SIGNIFICANT WEATHER AND/OR OBSTRUCTIONS TO VISIBILITY. NOT ALL STATIONS ARE QUALITY CONTROLLED BY THE NATIONAL WEATHER SERVICE. USE DATA WITH CAUTION...ESPECIALLY DEWPOINT OBSERVATIONS. NOTICE: OBSERVATIONS FOR THE SAVANNAH-HILTON HEAD INTERNATIONAL AIRPORT /KSAV/ HAVE BEEN TEMPORARILY REMOVED DUE TO AN ERRONEOUS TEMPERATURE SENSOR. THE OBSERVATION WILL BE REINTRODUCED ONCE REPAIRS ARE COMPLETE. SCZ027-030-031-034>040-042>050-060000- ...SOUTHEAST SOUTH CAROLINA... CITY SKY/WX TMP DP RH WIND PRES REMARKS N CHARLESTON CLEAR 48 23 37 N9 30.32R WATERFRONT PRK N/A 52 30 43 N9 30.17R MOUNT PLEASANT FAIR 48 30 49 N5 30.33R JOHNS ISLAND FAIR 48 27 43 N8 30.32R PINOPOLIS N/A 52 27 37 N12 30.25R MONCKS CORNER FAIR 45 21 39 N3 30.33R SUMMERVILLE FAIR 46 27 46 N5 30.34R BEAUFORT MCAS CLEAR 49 23 36 N9 30.34R BEAUFORT ARPT FAIR 50 25 37 N7 30.32R HILTON HEAD IS CLEAR 52 25 35 N8 30.33R WALTERBORO CLEAR 50 21 32 N5 30.34R ALLENDALE FAIR 50 19 29 CALM 30.33R ...SOUTHERN MIDLANDS AND PEE DEE... CITY SKY/WX TMP DP RH WIND PRES REMARKS GEORGETOWN NOT AVBL KINGSTREE NOT AVBL ORANGEBURG CLEAR 49 16 26 NE6 30.33R BARNWELL FAIR 48 27 43 N3 30.34R AIKEN FAIR 45 19 36 NW5 30.37R MANNING FAIR 45 21 39 N3 30.33S COLUMBIA CLEAR 49 16 26 N3 30.34R SUMTER PTCLDY 45 18 34 N9 30.31S FLORENCE CLEAR 46 21 37 N8 30.34R MYRTLE BEACH CLEAR 48 25 40 N15 30.34R N MYRTLE BEACH PTCLDY 46 27 47 N5 30.33R $$ GAZ063-065-086>088-099>101-113>116-118-119-134>141-150-060000- ...SOUTHEAST GEORGIA... CITY SKY/WX TMP DP RH WIND PRES REMARKS SAVANNAH ARPT CLEAR 50 24 36 N7 30.33R HUNTER AAF CLEAR 52 26 37 NE6 30.30R FORT STEWART CLEAR 50 27 40 CALM 30.31R STATESBORO CLEAR 52 21 29 CALM 30.33R SYLVANIA CLEAR 50 31 48 NE3 30.34R CLAXTON FAIR 51 29 42 N3 30.33R ...CSRA...CENTRAL AND FAR SOUTHEAST GEORGIA... CITY SKY/WX TMP DP RH WIND PRES REMARKS THOMSON CLEAR 49 26 41 CALM 30.39R AUGUSTA-BUSH CLEAR 48 20 32 NE7 30.34R AUGUSTA-DANIEL CLEAR 50 18 28 N7 30.34R SWAINSBORO FAIR 50 27 40 CALM 30.34R VIDALIA CLEAR 50 27 40 N3 30.33R EASTMAN FAIR 49 22 34 CALM 30.37R HAZLEHURST FAIR 51 24 34 NE3 30.32R ALMA CLEAR 51 27 39 N3 30.32R WAYCROSS CLEAR 53 31 43 NE6 30.32R JESUP FAIR 54 32 43 CALM 30.33R BAXLEY FAIR 52 28 40 E3 30.32R BRUNSWICK CLEAR 52 37 58 E6 30.33R SAINT SIMONS CLEAR 50 37 61 NE8 30.32R $$ SCZ027-028-034-036>038-045-046-048>050-GAZ119-141-060000- ...LAKE AND SUPPLEMENTAL COASTAL OBSERVATIONS... STATION/POSITION TIME TEMP WIND PRES WAVE SWELL AIR SEA DIR/SP/G HT/PER HT/PER/DIR (UTC) (F) (DEG/KT/KT) (MB) (FT/S) (FT/S/D) WINYAH BAY NOT AVBL LAKE MURRAY 2200 51 20/ 1/ 5 1026.4F ACE BASIN NERRS NOT AVBL FORT PULASKI 2200 53 55 30/ 9/ 16 1026.1R SAPELO ISLAND 2200 55 30/ 7 1026.0R $$ ANZ835-935-AMZ111-154-330-350-352-354-370-450-454-472-060000- ...C-MAN AND BUOY OBSERVATIONS... STATION/POSITION TIME TEMP WIND PRES WAVE SWELL AIR SEA DIR/SP/G HT/PER HT/PER/DIR (UTC) (F) (DEG/KT/KT) (MB) (FT/S) (FT/S/D) BUOY 41004 2250 50 67 20/ 16/ 21 1026.1R 5/ 6 BUOY 41008 2250 52 56 50/ 12/ 16 1026.8R 3/ 6 2/100/10 FOLLY BEACH CMAN 2300 50 10/ 10/ 11 1026.8R CAPERS NEARSHORE 2208 51 10/ 12/ 16 1025.3F FRIPP NEARSHORE 2200 53 360/ 12/ 14 1025.1R STATION/POSITION TIME TEMP WIND PRES WAVE SWELL AIR SEA DIR/SP/G HT/PER HT/PER/DIR (UTC) (F) (DEG/KT/KT) (MB) (FT/S) (FT/S/D) 5E ST. MARYS GA NOT AVBL FRYING PAN BUOY 2200 49 67 360/ 16/ 23 1025.7R BUOY 41025 2250 70 10/ 21/ 27 1025.7R 7/10 5/ 40/10 CAPE LOOKOUT NC NOT AVBL BUOY 41002 2250 58 69 20/ 21/ 27 N/A 14/ 9 BUOY 41010 2220 65 73 1021.3R ST AUGUSTINE FL 2300 52 60 360/ 20/ 23 1026.5R $$

USA.gov is the U.S. government's official web portal to all federal, state and local government web resources and services.